Lexington Weather

Lexington, Massachusetts, USA

44°F
4/22/2024 9:08am 
  • Lexington Conditions: Clear
  • Temperature: 44.2°F / 6.8°CWarmer 3.6°F than last hour.
  • Dew Point: 27.3°FDecreased 0.6°Fsince last hour.
  • Relative Humidity: 51%Decreased 9.0% since last hour.
  • Wind: Calm, 10-min avg: Calm, gust: 4 mph
  • Barometer: 29.96 in Steady
  • Visibility: 10 miles
  • Rain Today: 0.00 in
  •   

Regional Weather Roundup
for Boston, MA

        
000
ASUS41 KBOX 170310
RWRBOX

REGIONAL WEATHER ROUNDUP
NATIONAL WEATHER SERVICE BOSTON/NORTON MA
1100 PM EDT TUE APR 16 2024

NOTE:  "FAIR" INDICATES FEW OR NO CLOUDS BELOW 12,000 FEET WITH NO 
SIGNIFICANT WEATHER AND/OR OBSTRUCTIONS TO VISIBILITY.

MAZALL-170400-
EASTERN MASSACHUSETTS
  
CITY           SKY/WX    TMP DP  RH WIND       PRES   REMARKS
BOSTON         PTCLDY    50  41  71 N7        30.14R                  
BEVERLY        CLEAR     51  33  50 N7        30.14R                  
LAWRENCE       CLEAR     53  32  44 N10       30.16R                  
BEDFORD        CLEAR     50  34  54 N7        30.13R                  
NORWOOD        CLEAR     50  38  63 CALM      30.13R                  
MARSHFIELD     CLEAR     45  39  81 CALM      30.12R                  
PLYMOUTH       CLEAR     46  41  82 CALM      30.11S                  
TAUNTON        CLEAR     46  38  73 CALM      30.12R                  
NEW BEDFORD    CLEAR     46  42  86 CALM      30.12R                  
$$

MAZALL-170400-
CAPE COD AND THE ISLANDS
  
CITY           SKY/WX    TMP DP  RH WIND       PRES   REMARKS
FALMOUTH       CLEAR     46  39  76 CALM      30.11S                  
HYANNIS        CLEAR     45  39  79 SW3       30.11R                  
CHATHAM        CLEAR     49  45  86 SW5       30.12S                  
PROVINCETOWN   CLEAR     48  44  86 S5        30.13R                  
NANTUCKET      CLEAR     44  39  82 SW6       30.13S                  
MARTHAS VNYRD  CLEAR     41  38  89 SW3       30.12S                  
$$
 
MAZALL-170400-
CENTRAL AND WESTERN MASSACHUSETTS
  
CITY           SKY/WX    TMP DP  RH WIND       PRES   REMARKS
WORCESTER      CLEAR     53  29  39 W9        30.14R                  
FITCHBURG      CLEAR     47  34  60 N5        30.15R                  
ORANGE         CLEAR     42  36  79 CALM      30.16R                  
SPRINGFIELD    PTCLDY    55  31  39 N6        30.11S                  
WESTFIELD      CLEAR     54  29  38 NW6       30.15R                  
NORTH ADAMS    CLEAR     46  33  60 E3        30.17R                  
PITTSFIELD     CLEAR     49  26  41 SW6       30.16R                  
$$
 
RIZALL-170400-
RHODE ISLAND
  
CITY           SKY/WX    TMP DP  RH WIND       PRES   REMARKS
PROVIDENCE     CLEAR     55  34  45 W6        30.13R                  
NEWPORT        CLEAR     48  38  68 CALM      30.12R                  
BLOCK ISLAND   CLEAR     50  38  63 W14       30.16R                  
SMITHFIELD     CLEAR     55  31  39 W6        30.14R                  
WESTERLY       CLEAR     54  40  59 SW9       30.15R                  
$$
 
CTZALL-170400-
CONNECTICUT
  
CITY           SKY/WX    TMP DP  RH WIND       PRES   REMARKS
BRADLEY INTL   PTCLDY    59  30  33 NW9       30.15R                  
HARTFORD       CLEAR     59  31  34 NW7       30.14R                  
PLAINVILLE     FAIR      51  34  52 CALM      30.15S                  
BRIDGEPORT     CLEAR     53  42  66 S6        30.16R                  
DANBURY        CLEAR     49  36  61 CALM      30.17R                  
GROTON         CLEAR     53  41  63 SW9       30.15R                  
NEW HAVEN      CLEAR     53  43  68 CALM      30.16R                  
CHESTER        CLEAR     55  30  38 W3        30.16R                  
MERIDEN        CLEAR     51  36  56 CALM      30.16R                  
WILLIMANTIC    CLEAR     47  37  68 CALM      30.16R                  
OXFORD         CLEAR     51  30  44 N6        30.17R                  
$$

MEZ002-015-021-024-NHZ003-005-008-011-012-014-VTZ005-008-170400-
NORTHERN NEW ENGLAND
  
CITY           SKY/WX    TMP DP  RH WIND       PRES   REMARKS
PORTLAND ME    CLEAR     47  32  56 N9        30.16R                  
BANGOR ME      CLOUDY    42  25  50 NW15      30.17R                  
CONCORD NH     CLEAR     50  32  50 NW7       30.16R                  
MANCHESTER NH  CLEAR     54  32  43 N3        30.14R                  
NASHUA NH      CLEAR     54  32  43 N10G17    30.16R                  
PORTSMOUTH NH  CLEAR     52  32  45 N8        30.14R                  
JAFFREY NH     CLEAR     47  32  56 CALM      30.16R                  
KEENE NH       CLEAR     46  35  65 CALM      30.17R                  
BURLINGTON VT  PTCLDY    45  28  51 N9        30.21R                  
MT. WASHINGTON BLWGSNOW  19  19 100 NW49G60     N/A  VSB 1/16WCI  -3  
$$

NYZ052-076-170400-
EASTERN NEW YORK
  
CITY           SKY/WX    TMP DP  RH WIND       PRES   REMARKS
ALBANY         PTCLDY    51  29  42 NW7       30.19R                  
NEW YORK CITY  PTCLDY    61  34  36 S8        30.14S                  
$$
 
ANZALL-170400-
MARINE OBSERVATIONS
  
STATION/POSITION TIME  TEMP    WIND        PRES    VSBY  WAVE
                       AIR SEA DIR/SP/G                  HT/PER
                 (UTC) (F)     (DEG/KT/KT) (MB)    (MI)  (FT/S)
BOSTON BUOY      0250   50      CALM  /  2 1020.0R         2/ 8
BUZZARDS BAY     0200   51     240/ 13/ 14 1020.4R
NANTUCKET SOUND  0250   49 47  220/  6/  8 1019.6S         1
MASS BAY-STELLWA 0104   49 47  190/  4/  6 1019.4R  1 7/8  2/11
ISLE OF SHOALS   0200   56     350/ 16/ 17 1019.6R
S OF BLOCK IS    0256      46                N/A           4/ 8
$$

......................KEY.........................
  SKY/WX - SKY CONDITION/PRESENT WEATHER
  TMP    - TEMPERATURE IN FAHRENHEIT
  DWPT   - DEWPOINT IN FAHRENHEIT
  RH     - RELATIVE HUMIDITY IN PERCENT
  WIND   - DIRECTION AND SPEED IN MPH
  PRES   - MEAN SEA LEVEL PRESSURE IN INCHES OF HG
  WCI    - WIND CHILL INDEX
  VSB    - VISIBILITY IN MILES
  HX     - HEAT INDEX
  TC     - TEMPERATURE IN CELSIUS
  VRB    - VARIABLE WIND DIRECTION
  N/A    - NOT AVAILABLE
  
      

Other recent Regional Weather Roundups

Mon Apr 22, 8:10am EDT

Mon Apr 22, 7:10am EDT

Mon Apr 22, 6:10am EDT

Mon Apr 22, 5:10am EDT

Mon Apr 22, 4:10am EDT

Mon Apr 22, 3:10am EDT

Mon Apr 22, 2:10am EDT

Mon Apr 22, 1:10am EDT

Mon Apr 22, 12:10am EDT

Sun Apr 21, 11:10pm EDT

Sun Apr 21, 10:10pm EDT

Sun Apr 21, 9:10pm EDT

Sun Apr 21, 8:10pm EDT

Sun Apr 21, 7:10pm EDT

Sun Apr 21, 6:10pm EDT

Sun Apr 21, 5:10pm EDT

Sun Apr 21, 4:10pm EDT

Sun Apr 21, 3:10pm EDT

Sun Apr 21, 2:10pm EDT

Sun Apr 21, 1:10pm EDT

Sun Apr 21, 12:10pm EDT

Sun Apr 21, 11:10am EDT

Sun Apr 21, 10:10am EDT

Sun Apr 21, 9:10am EDT

Sun Apr 21, 8:10am EDT

Sun Apr 21, 7:10am EDT

Sun Apr 21, 6:10am EDT

Sun Apr 21, 5:10am EDT

Sun Apr 21, 4:10am EDT

Sun Apr 21, 3:10am EDT

Sun Apr 21, 2:10am EDT

Sun Apr 21, 1:10am EDT

Sun Apr 21, 12:10am EDT

Sat Apr 20, 11:10pm EDT

Sat Apr 20, 10:10pm EDT

Sat Apr 20, 9:10pm EDT

Sat Apr 20, 8:10pm EDT

Sat Apr 20, 7:10pm EDT

Sat Apr 20, 6:10pm EDT

Sat Apr 20, 5:10pm EDT

Sat Apr 20, 4:10pm EDT

Sat Apr 20, 3:10pm EDT

Sat Apr 20, 2:10pm EDT

Sat Apr 20, 1:10pm EDT

Sat Apr 20, 12:10pm EDT

Sat Apr 20, 11:10am EDT

Sat Apr 20, 10:10am EDT

Sat Apr 20, 9:10am EDT

Sat Apr 20, 8:10am EDT

Sat Apr 20, 7:10am EDT

Sat Apr 20, 6:10am EDT

Sat Apr 20, 5:10am EDT

Sat Apr 20, 4:10am EDT

Sat Apr 20, 3:10am EDT

Sat Apr 20, 2:10am EDT

Sat Apr 20, 1:10am EDT

Sat Apr 20, 12:10am EDT

Fri Apr 19, 11:10pm EDT

Fri Apr 19, 10:10pm EDT

Fri Apr 19, 9:10pm EDT

Fri Apr 19, 8:10pm EDT

Fri Apr 19, 7:10pm EDT

Fri Apr 19, 6:10pm EDT

Fri Apr 19, 5:10pm EDT

Fri Apr 19, 4:10pm EDT

Fri Apr 19, 3:10pm EDT

Fri Apr 19, 2:10pm EDT

Fri Apr 19, 1:10pm EDT

Fri Apr 19, 12:10pm EDT

Fri Apr 19, 11:10am EDT

Fri Apr 19, 10:10am EDT

Fri Apr 19, 9:10am EDT

Fri Apr 19, 8:10am EDT

Fri Apr 19, 7:10am EDT

Fri Apr 19, 6:10am EDT

Fri Apr 19, 5:10am EDT

Fri Apr 19, 4:10am EDT

Fri Apr 19, 3:10am EDT

Fri Apr 19, 2:10am EDT

Fri Apr 19, 1:10am EDT

Fri Apr 19, 12:10am EDT

Thu Apr 18, 11:10pm EDT

Thu Apr 18, 10:10pm EDT

Thu Apr 18, 9:10pm EDT

Thu Apr 18, 8:10pm EDT

Thu Apr 18, 7:10pm EDT

Thu Apr 18, 6:10pm EDT

Thu Apr 18, 5:10pm EDT

Thu Apr 18, 4:10pm EDT

Thu Apr 18, 3:10pm EDT

Thu Apr 18, 2:10pm EDT

Thu Apr 18, 1:10pm EDT

Thu Apr 18, 12:10pm EDT

Thu Apr 18, 11:10am EDT

Thu Apr 18, 10:10am EDT

Thu Apr 18, 9:10am EDT

Thu Apr 18, 8:10am EDT

Thu Apr 18, 7:10am EDT

Thu Apr 18, 6:10am EDT

Thu Apr 18, 5:10am EDT

Thu Apr 18, 4:10am EDT

Thu Apr 18, 3:10am EDT

Thu Apr 18, 2:10am EDT

Thu Apr 18, 1:10am EDT

Thu Apr 18, 12:10am EDT

Wed Apr 17, 11:10pm EDT

Wed Apr 17, 10:10pm EDT

Wed Apr 17, 9:10pm EDT

Wed Apr 17, 8:10pm EDT

Wed Apr 17, 7:10pm EDT

Wed Apr 17, 6:10pm EDT

Wed Apr 17, 5:10pm EDT

Wed Apr 17, 4:10pm EDT

Wed Apr 17, 3:10pm EDT

Wed Apr 17, 2:10pm EDT

Wed Apr 17, 1:10pm EDT

Wed Apr 17, 12:10pm EDT

Wed Apr 17, 11:10am EDT

Wed Apr 17, 10:10am EDT

Wed Apr 17, 9:10am EDT

Wed Apr 17, 8:10am EDT

Wed Apr 17, 7:10am EDT

Wed Apr 17, 6:10am EDT

Wed Apr 17, 5:10am EDT

Wed Apr 17, 4:10am EDT

Wed Apr 17, 3:10am EDT

Wed Apr 17, 2:10am EDT

Wed Apr 17, 1:10am EDT

Wed Apr 17, 12:10am EDT

Tue Apr 16, 10:10pm EDT

Tue Apr 16, 9:10pm EDT

Tue Apr 16, 8:10pm EDT

Tue Apr 16, 7:10pm EDT

Tue Apr 16, 6:10pm EDT

Tue Apr 16, 5:10pm EDT

Tue Apr 16, 4:10pm EDT

Tue Apr 16, 3:10pm EDT

Tue Apr 16, 2:10pm EDT

Tue Apr 16, 1:10pm EDT

Tue Apr 16, 12:10pm EDT

Tue Apr 16, 11:10am EDT

Tue Apr 16, 10:10am EDT

Tue Apr 16, 9:10am EDT

Tue Apr 16, 8:10am EDT

Tue Apr 16, 7:10am EDT

Tue Apr 16, 6:10am EDT

Tue Apr 16, 5:10am EDT

Tue Apr 16, 4:10am EDT

Tue Apr 16, 3:10am EDT

Tue Apr 16, 2:10am EDT

Tue Apr 16, 1:10am EDT

Tue Apr 16, 12:10am EDT

Mon Apr 15, 11:10pm EDT

Mon Apr 15, 10:10pm EDT

Mon Apr 15, 9:10pm EDT

Mon Apr 15, 8:10pm EDT

Mon Apr 15, 7:10pm EDT

Mon Apr 15, 6:10pm EDT

Mon Apr 15, 5:10pm EDT

Mon Apr 15, 4:10pm EDT

Mon Apr 15, 3:10pm EDT

Mon Apr 15, 2:10pm EDT

Mon Apr 15, 1:10pm EDT

Mon Apr 15, 12:10pm EDT

Mon Apr 15, 11:10am EDT

Mon Apr 15, 10:10am EDT

Mon Apr 15, 9:10am EDT